Terminal Aerodrome Forecast
Issued by NWS Miami, FL

Home | Current Version | Previous Version | Text Only | Print | Product List | Glossary On
Versions: 1 2 3 4 5 6 7 8 9 10 11 12 13 14 15 16 17 18 19 20 21 22 23 24 25 26 27 28 29 30 31 32 33 34 35 36 37
000
FTUS42 KMFL 130253 AAA
TAFPBI
TAF AMD
KPBI 130253Z 1303/1324 26004KT P6SM SKC
     FM131000 30003KT 5SM BCFG FEW002
     FM131300 33012G18KT P6SM SCT035
     FM132000 01015G21KT P6SM SKC=

USA.gov is the U.S. government's official web portal to all federal, state and local government web resources and services.